STARLINK-35847, 66621

Orbit data source: Space-Track

STARLINK-35847, 66621 is a payload satellite owned by SpaceX/Seattle (US) in LEO that was launched on Sun, 23 Nov 2025 UTC via an FALCON 9 launch vehicle from the Air Force Western Test Range (AFWTR). Payload-class satellites include a variety of spacecraft equipped with specific instruments for various scientific and technological missions. These include communications satellites like Starlink; space stations such as the ISS; scientific satellites like the Hubble; Earth observation satellites from companies like Planet Labs, Umbra, and HawkEye 360; GPS; miniature CubeSats for education and research; and military/defense satellites.

Loading next visibility...
Identifier
66621, 2025-271E
Orbit
LEO
Country
Flag of USUS
Related business
Manufacturer
SpaceX/Seattle
Mission
Operational Commercial Communications
Bus & Motor
STARLINK V2MO, Unknown motor
Mass
575 kg wet, ~530 kg dry
Launch date (UTC)
2025-11-23 (10 months ago)
Launch vehicle
FALCON 9
Launch site
Air Force Western Test Range (AFWTR)
Object type
Payload
Rocket body
Debris
Shape & HBR
Box + 1 Pan, 17.7 m
Radar Cross Section
41.120 m², Large (>1 m²)

Expand to show TLE details & history
Last TLE update: 14 hours ago

TLE from 14 hours ago
0 STARLINK-35847
1 66621U 25271E   26265.41051461  .00012417  00000-0  37810-3 0  9998
2 66621  53.1573 304.8960 0001217  86.9493 273.1649 15.34393750 47707
Epoch: 2026-09-22T09:51Z
TLE epoch observation values (Epoch: 2026-09-22T09:51:08.462Z)
Latitude
Longitude
155.83436°
Altitude
463.577 km
Speed
7.636 km/s
True Right ascension
20h 19m 35s
True Declination
0° 00' 00"
Sunlit
Object was in full shadow at epoch
Visualization orbit readout
Latitude
Unknown
Longitude
Unknown
Altitude
Unknown
Speed
Unknown
Apparent Right ascension
Unknown
Apparent Declination
Unknown
Sunlit
N/A
Visualization observer readout
Local Sidereal Time
17:13:04
Azimuth
Unknown
Elevation
Unknown
Doppler factor
Unknown
Orbital elements
Apogee altitude
463.812 km
Perigee altitude
462.147 km
Semi-major axis
6,841.116 km
Eccentricity
0.00012
Inclination
53.1573°
RAAN
304.896°
Arg. of periapsis
86.9493°
True anomaly
273.15098°
Mean anomaly
273.1649°
Eccentric anomaly
273.15794°
Mean motion
3.83577 °/min
Orbital period
93.85 mins
BSTAR
0.0003781
Loading maneuver chart data...
Computing Atmospheric mass density...
Loading historical data...
Loading historical data...
Loading historical data...
Loading historical data...
Loading historical data...
Loading historical data...
Loading historical data...

Documentation

Showing up to 5 results
|